Duncan, OK

3:48 PM CST on November 16, 2019 (GMT -0600)
Halliburton

Weather History for KDUC - September, 2019

Change the Weather History Date:

Sunday, September 22, 2019

  Actual Average (KLAW) Record (KLAW)
Temperature  
Mean Temperature 80 °F -  
Max Temperature 86 °F 81 °F 102 °F (1926)
Min Temperature 73 °F 58 °F 40 °F (1999)
Cooling Degree Days 14    
Growing Degree Days 30 (Base 50)    
Moisture  
Dew Point 72 °F    
Average Humidity 80    
Maximum Humidity 94    
Minimum Humidity 64    
Precipitation  
Precipitation 0.02 in - - ()
Sea Level Pressure  
Sea Level Pressure 29.97 in    
Wind  
Wind Speed 13 mph (South)    
Max Wind Speed 20 mph    
Max Gust Speed 25 mph    
Visibility 10 miles    
Events Rain    
Averages and records for this station are not official NWS values.
T = Trace of Precipitation, MM = Missing Value Source: NWS Daily Summary

Daily Weather History Graph

Daily Weather History Graph

Search for Another Location

Airport or City:

Astronomy

Sep. 22, 2019 Rise Set
Actual Time 7:19 AM CDT 7:28 PM CDT
Civil Twilight 6:54 AM CDT 7:53 PM CDT
Nautical Twilight 6:25 AM CDT 8:23 PM CDT
Astronomical Twilight 5:55 AM CDT 8:52 PM CDT
Moon 12:25 AM CDT (9/22) 3:09 PM CDT (9/22)
Length of Visible Light 12h 59m
Length of Day
12h 09m
Last Quarter, 44% of the Moon is Illuminated
Sep 22
Last Quarter
Sep 28
New
Oct 5
First Quarter
Oct 13
Full
Oct 21
Last Quarter

Hourly Weather History & Observations

Time (CDT) Temp. Heat Index Dew Point Humidity Pressure Visibility Wind Dir Wind Speed Gust Speed Precip Events Conditions
12:15 AM 78.8 °F - 69.4 °F 73% 29.95 in 10.0 mi SSE 13.8 mph - N/A   Clear
12:35 AM 79.2 °F - 69.6 °F 72% 29.95 in 10.0 mi SSE 15.0 mph 24.2 mph N/A   Clear
12:55 AM 79.3 °F - 69.6 °F 72% 29.95 in 10.0 mi SSE 16.1 mph 23.0 mph N/A   Clear
1:15 AM 79.2 °F - 69.8 °F 73% 29.94 in 10.0 mi SSE 17.3 mph 23.0 mph N/A   Scattered Clouds
1:35 AM 79.3 °F - 69.8 °F 72% 29.94 in 10.0 mi South 19.6 mph 25.3 mph N/A   Clear
1:55 AM 78.8 °F - 69.8 °F 74% 29.95 in 10.0 mi South 18.4 mph - N/A   Clear
2:15 AM 78.6 °F - 70.0 °F 75% 29.95 in 10.0 mi South 18.4 mph - N/A   Scattered Clouds
2:35 AM 78.8 °F - 70.0 °F 74% 29.96 in 10.0 mi South 15.0 mph - N/A   Overcast
2:55 AM 78.4 °F - 70.2 °F 76% 29.97 in 10.0 mi South 11.5 mph - N/A   Overcast
3:15 AM 78.1 °F - 70.2 °F 77% 29.96 in 10.0 mi South 12.7 mph - N/A Rain Light Rain
3:35 AM 76.5 °F - 70.7 °F 82% 29.96 in 10.0 mi South 9.2 mph - 0.01 in Rain Light Rain
3:55 AM 75.9 °F - 70.9 °F 84% 29.96 in 10.0 mi South 10.4 mph - 0.02 in Rain Light Rain
4:15 AM 75.7 °F - 71.1 °F 85% 29.96 in 10.0 mi South 10.4 mph - N/A Rain Light Rain
4:35 AM 75.0 °F - 71.2 °F 88% 29.95 in 10.0 mi South 11.5 mph - N/A Rain Light Rain
4:55 AM 74.8 °F - 71.2 °F 88% 29.95 in 10.0 mi South 12.7 mph - N/A   Light Drizzle
5:35 AM 73.9 °F - 71.6 °F 92% 29.96 in 10.0 mi South 10.4 mph - N/A   Mostly Cloudy
6:15 AM 73.6 °F - 71.6 °F 93% 29.96 in 10.0 mi South 12.7 mph - N/A   Light Drizzle
6:35 AM 73.4 °F - 71.6 °F 94% 29.96 in 10.0 mi South 11.5 mph - N/A   Light Drizzle
6:55 AM 73.8 °F - 71.4 °F 92% 29.97 in 10.0 mi South 12.7 mph - N/A Rain Light Rain
7:15 AM 73.6 °F - 71.4 °F 93% 29.97 in 10.0 mi South 12.7 mph - N/A   Mostly Cloudy
7:35 AM 73.8 °F - 71.2 °F 92% 29.97 in 10.0 mi South 12.7 mph - N/A   Scattered Clouds
7:55 AM 74.1 °F - 71.2 °F 91% 29.98 in 10.0 mi South 12.7 mph - N/A   Mostly Cloudy
8:15 AM 74.1 °F - 71.2 °F 91% 29.97 in 10.0 mi South 12.7 mph - N/A   Overcast
8:35 AM 74.5 °F - 71.4 °F 90% 29.98 in 10.0 mi South 13.8 mph - N/A   Overcast
8:55 AM 74.7 °F - 71.2 °F 89% 29.99 in 10.0 mi South 17.3 mph - N/A   Overcast
9:15 AM 75.0 °F - 71.4 °F 89% 30.00 in 10.0 mi South 15.0 mph - N/A   Overcast
9:35 AM 75.9 °F - 71.8 °F 87% 30.00 in 10.0 mi South 15.0 mph - N/A   Overcast
9:55 AM 76.5 °F - 71.8 °F 85% 30.01 in 10.0 mi South 12.7 mph - N/A   Overcast
10:15 AM 77.2 °F - 71.6 °F 83% 30.01 in 10.0 mi South 16.1 mph 20.7 mph N/A   Scattered Clouds
10:35 AM 78.8 °F - 72.0 °F 79% 30.01 in 10.0 mi SSW 16.1 mph - N/A   Mostly Cloudy
10:55 AM 78.6 °F - 71.1 °F 78% 30.01 in 10.0 mi SSW 13.8 mph 20.7 mph N/A   Overcast
11:15 AM 79.7 °F - 71.8 °F 77% 30.01 in 10.0 mi SSW 10.4 mph - N/A   Overcast
11:35 AM 81.1 °F 85.4 °F 71.8 °F 73% 30.01 in 10.0 mi SW 12.7 mph - N/A   Overcast
11:55 AM 80.4 °F 84.2 °F 71.6 °F 74% 30.00 in 10.0 mi SSW 12.7 mph - N/A   Overcast
12:35 PM 80.6 °F 84.4 °F 71.2 °F 73% 30.00 in 10.0 mi SSW 11.5 mph - N/A   Overcast
12:55 PM 80.8 °F 84.7 °F 71.2 °F 73% 30.00 in 10.0 mi SW 10.4 mph - N/A   Overcast
1:15 PM 80.4 °F 84.2 °F 71.6 °F 74% 29.99 in 10.0 mi WSW 8.1 mph - N/A   Overcast
1:35 PM 82.6 °F 87.8 °F 72.1 °F 71% 29.98 in 10.0 mi SW 11.5 mph - N/A   Overcast
1:55 PM 83.7 °F 89.4 °F 72.3 °F 69% 29.97 in 10.0 mi SW 10.4 mph - N/A   Mostly Cloudy
2:15 PM 83.8 °F 89.2 °F 72.0 °F 67% 29.97 in 10.0 mi SSW 8.1 mph - N/A   Mostly Cloudy
2:35 PM 84.7 °F 90.7 °F 72.3 °F 66% 29.96 in 10.0 mi SW 10.4 mph - N/A   Mostly Cloudy
2:55 PM 85.8 °F 92.6 °F 72.9 °F 65% 29.96 in 10.0 mi SSW 11.5 mph 17.3 mph N/A   Overcast
3:15 PM 86.0 °F 92.6 °F 72.7 °F 64% 29.95 in 10.0 mi SW 12.7 mph - N/A   Mostly Cloudy
3:35 PM 83.1 °F 88.4 °F 72.1 °F 69% 29.95 in 10.0 mi South 13.8 mph - N/A   Scattered Clouds
3:55 PM 82.8 °F 87.4 °F 71.1 °F 68% 29.95 in 10.0 mi South 9.2 mph - N/A   Clear
4:15 PM 83.3 °F 88.2 °F 71.2 °F 67% 29.94 in 10.0 mi SSW 10.4 mph - N/A   Clear
4:35 PM 83.8 °F 88.9 °F 71.4 °F 66% 29.94 in 10.0 mi South 12.7 mph - N/A   Scattered Clouds
4:55 PM 84.4 °F 90.0 °F 71.8 °F 66% 29.94 in 10.0 mi South 12.7 mph - N/A   Mostly Cloudy
5:15 PM 83.7 °F 89.2 °F 72.1 °F 68% 29.95 in 10.0 mi SSE 9.2 mph - N/A   Overcast
5:35 PM 83.1 °F 88.6 °F 72.5 °F 70% 29.95 in 10.0 mi South 8.1 mph - N/A   Mostly Cloudy
5:55 PM 82.9 °F 89.1 °F 73.6 °F 73% 29.95 in 10.0 mi SSE 10.4 mph - N/A   Mostly Cloudy
6:15 PM 81.1 °F 86.6 °F 74.1 °F 79% 29.95 in 10.0 mi SSE 12.7 mph - N/A   Mostly Cloudy
6:35 PM 81.0 °F 86.5 °F 74.5 °F 81% 29.95 in 10.0 mi SE 9.2 mph - N/A   Overcast
6:55 PM 80.4 °F 85.6 °F 74.7 °F 83% 29.95 in 10.0 mi SE 8.1 mph - N/A   Scattered Clouds
7:15 PM 79.7 °F - 73.0 °F 80% 29.96 in 10.0 mi SSE 10.4 mph - N/A   Scattered Clouds
7:35 PM 78.8 °F - 72.9 °F 82% 29.96 in 10.0 mi SSE 6.9 mph - N/A   Scattered Clouds
7:55 PM 78.4 °F - 73.2 °F 84% 29.96 in 10.0 mi SE 6.9 mph - N/A   Clear
8:15 PM 78.1 °F - 73.2 °F 85% 29.97 in 10.0 mi SE 5.8 mph - N/A   Scattered Clouds
8:35 PM 77.4 °F - 73.4 °F 88% 29.97 in 10.0 mi SE 6.9 mph - N/A   Overcast
8:55 PM 77.2 °F - 73.6 °F 89% 29.99 in 10.0 mi SSE 6.9 mph - N/A   Mostly Cloudy
9:15 PM 77.0 °F - 73.4 °F 89% 29.99 in 10.0 mi SE 5.8 mph - N/A   Clear
9:35 PM 77.2 °F - 73.4 °F 88% 30.00 in 10.0 mi SE 6.9 mph - N/A   Clear
9:55 PM 76.6 °F - 73.2 °F 89% 30.00 in 10.0 mi SE 5.8 mph - N/A   Clear
10:15 PM 76.1 °F - 73.0 °F 90% 30.00 in 10.0 mi SE 5.8 mph - N/A   Clear
10:35 PM 75.4 °F - 72.9 °F 92% 30.01 in 10.0 mi East 4.6 mph - N/A   Clear
10:55 PM 75.0 °F - 72.9 °F 93% 30.02 in 10.0 mi ESE 5.8 mph - N/A   Clear
11:15 PM 74.7 °F - 72.7 °F 94% 30.01 in 10.0 mi SE 5.8 mph - N/A   Clear
11:35 PM 74.5 °F - 72.5 °F 94% 30.02 in 10.0 mi SE 4.6 mph - N/A   Clear
11:55 PM 74.3 °F - 72.3 °F 94% 30.02 in 10.0 mi East 4.6 mph - N/A   Clear